Weather Roundup
Issued by NWS Corpus Christi, TX

Home | Current Version | Previous Version | Text Only | Print | Product List | Glossary On
Versions: 1 2 3 4 5 6 7 8 9 10 11 12 13 14 15 16 17 18 19 20 21 22 23 24 25 26 27 28 29 30 31 32 33 34 35 36 37 38 39 40 41 42 43 44 45 46 47 48 49 50
000
ASUS44 KCRP 230610
HRRCRP

SOUTH TEXAS REGIONAL WEATHER ROUNDUP
NATIONAL WEATHER SERVICE CORPUS CHRISTI TX
100 AM CDT MON APR 23 2018


TXZ229>244-230700-
...CORPUS CHRISTI AREA OBSERVATIONS...

CITY           SKY/WX    TMP DP  RH WIND       PRES   REMARKS
CORPUS CHRISTI CLOUDY    69  57  65 E8        30.03S
NAS CORPUS CHR CLOUDY    72  32  23 E12       30.03S
ROCKPORT       MOCLDY    67  56  67 E7        30.03R
KINGSVILLE ARP FAIR      64  62  93 CALM      30.04S
KINGSVILLE NAS PTCLDY    63  57  81 E3        30.03S
ALICE            N/A    N/A N/A N/A MISG      30.04S
$$

...VICTORIA AREA OBSERVATIONS...

CITY           SKY/WX    TMP DP  RH WIND       PRES   REMARKS
PORT LAVACA    CLOUDY    62  56  83 N6        30.04S
VICTORIA       CLOUDY    60  55  83 CALM      30.05R
BEEVILLE       FAIR      62  55  77 E3        30.04S
PLEASANTON     MOCLDY    63  53  71 E3        30.05S
SAN ANTONIO    MOCLDY    62  51  67 CALM      30.07S
$$

...LAREDO AREA OBSERVATIONS...

CITY           SKY/WX    TMP DP  RH WIND       PRES   REMARKS
LAREDO         MOCLDY    70  48  45 E7        30.03S
COTULLA        MOCLDY    66  51  58 E7        30.03R
DEL RIO        CLEAR     63  45  51 CALM      30.02S
MCALLEN        PTCLDY    70  62  76 SE6       30.02F
HEBBRONVILLE   CLOUDY    66  56  70 SE3       30.06S
$$

...OTHER TEXAS OBSERVATIONS...

CITY           SKY/WX    TMP DP  RH WIND       PRES   REMARKS
BROWNSVILLE    FAIR      68  64  87 E6        30.02F
HOUSTON        FAIR      59  51  75 NW3       30.03S
COL. STATION   CLEAR     52  48  86 CALM      30.04F
AUSTIN         CLEAR     53  48  83 CALM      30.07R
WACO           CLEAR     48  45  89 W8        30.05F
FORT WORTH     PTCLDY    57  46  66 NW8       30.02S
WICHITA FALLS  PTCLDY    51  46  83 N7        30.09R
LUBBOCK        PTCLDY    50  39  66 NE8       30.14S
EL PASO        MOCLDY    69  35  28 E7        30.04F
$$

...MARINE OBSERVATIONS...

STATION/POSITION TIME  SKY/WX   TEMP    WIND        PRES    VSBY  WAVE   SWELL
                                AIR SEA DIR/SP/G                  HT/PER HT/PER
                 (UTC)          (F)     (DEG/KT/KT) (MB)    (MI)  (FT/S) (FT/S)
PORT ARANSAS     0600            71 71   50/ 12/ 14 1016.8R
BUOY 90 E PORT A 0550            70 73  360/ 16/ 17 1016.7R         3/ 5
BUOY 200 E PT IS 0550            73 76   30/ 12/ 14 1015.9F         3/ 6   2/ 6
BUOY 15 E GALVES 0450            68 69  330/ 14/ 17 1016.6          2/ 3
$$



USA.gov is the U.S. government's official web portal to all federal, state and local government web resources and services.